Voltar ao catálogo

COSMOS 2527

GLONASS

AtivoNavegaçãoMEO
NORAD 43508·PAYLOAD·🇷🇺 Russia

Lançado Jun 16, 2018 de Plesetsk Cosmodrome

Loading…

Próximas Passagens (próximas 24 horas)

TLE

AtualizadoSource: CelesTrak SupGP

Época: Sep 13, 2026, 23:59 UTC

1 43508C 18053A   26256.99979167  .00000000  00000+0  00000+0 0  2569
2 43508  65.6321  70.9473 0007354 213.3464 318.9914  2.13102272    13

Acompanhe COSMOS 2527 em tempo real com AllMySat

Download on the App Store